Вернуться в каталог

STARLINK-5196

АктивенСвязьVLEO
NORAD 55319·PAYLOAD·🇺🇸 United States

Запущен Jan 19, 2023 с Vandenberg Space Force Base

Loading…

Ближайшие Пролёты (ближайшие 24 часа)

TLE

СвежийSource: CelesTrak SupGP

Эпоха: Sep 15, 2026, 01:37 UTC

1 55319C 23010BC  26258.06784722  .00661280  00000+0  55055-1 0  2589
2 55319  70.0001 246.9193 0003544 268.4507 332.9637 14.98250850    11

Отслеживайте STARLINK-5196 в реальном времени с AllMySat

Download on the App Store